This is the latest recevied weather packets stored in our database for station/object SV9TNF-57. If no packets are shown the sender has not sent any weather packets the latest 10 day(s).
| Time | Temp. | Humidity | Pressure | Rain* | Wind** | Luminosity | Snow |
|---|---|---|---|---|---|---|---|
| 1788441554 | 31.67° C | 39% | 992.3 hPa | 0 mm | 9.39 m/s, 172° | - | - |
| 1788441253 | 31.67° C | 39% | 992.5 hPa | 0 mm | 4.92 m/s, 284° | - | - |
| 1788440953 | 31.11° C | 39% | 992.4 hPa | 0 mm | 6.71 m/s, 3° | - | - |
| 1788440654 | 31.67° C | 39% | 992.6 hPa | 0 mm | 6.71 m/s, 37° | - | - |
| 1788440353 | 32.22° C | 36% | 992.6 hPa | 0 mm | 12.07 m/s, 346° | - | - |
| 1788440053 | 31.67° C | 36% | 992.6 hPa | 0 mm | 1.34 m/s, 295° | - | - |
| 1788439753 | 31.67° C | 36% | 992.7 hPa | 0 mm | 1.79 m/s, 319° | - | - |
| 1788439473 | 31.11° C | 36% | 992.6 hPa | 0 mm | 9.83 m/s, 40° | - | - |
| 1788439153 | 31.11° C | 37% | 992.5 hPa | 0 mm | 10.28 m/s, 11° | - | - |
| 1788438859 | 31.67° C | 36% | 992.5 hPa | 0 mm | 10.28 m/s, 345° | - | - |
| 1788438553 | 32.22° C | 35% | 992.9 hPa | 0 mm | 8.49 m/s, 297° | - | - |
| 1788438253 | 31.67° C | 37% | 992.3 hPa | 0 mm | 9.83 m/s, 347° | - | - |
| 1788437952 | 31.67° C | 37% | 992.4 hPa | 0 mm | 3.58 m/s, 15° | - | - |
| 1788437652 | 31.67° C | 37% | 992.4 hPa | 0 mm | 7.6 m/s, 152° | - | - |
| 1788437352 | 31.67° C | 37% | 992.6 hPa | 0 mm | 8.49 m/s, 317° | - | - |
| 1788437052 | 31.67° C | 36% | 992.6 hPa | 0 mm | 8.49 m/s, 51° | - | - |
| 1788436752 | 31.67° C | 37% | 992.7 hPa | 0 mm | 3.58 m/s, 38° | - | - |
| 1788436452 | 31.11° C | 37% | 992.7 hPa | 0 mm | 9.83 m/s, 22° | - | - |
| 1788436152 | 31.67° C | 38% | 992.7 hPa | 0 mm | 10.28 m/s, 4° | - | - |
| 1788435852 | 31.67° C | 37% | 992.6 hPa | 0 mm | 4.47 m/s, 318° | - | - |
| 1788435551 | 31.67° C | 38% | 992.6 hPa | 0 mm | 5.81 m/s, 337° | - | - |
| 1788435252 | 31.67° C | 37% | 992.8 hPa | 0 mm | 3.13 m/s, 327° | - | - |
| 1788434951 | 31.67° C | 37% | 992.8 hPa | 0 mm | 7.6 m/s, 35° | - | - |
| 1788434651 | 31.67° C | 40% | 992.7 hPa | 0 mm | 5.36 m/s, 119° | - | - |
| 1788434352 | 32.22° C | 37% | 992.7 hPa | 0 mm | 2.68 m/s, 329° | - | - |
* Rain latest hour (hover to see other rain measurements)
** Current wind speed in m/s (hover to see current wind gust speed)